Regional Weather Roundup
Issued by NWS Raleigh/Durham, NC

Home | Current Version | Previous Version | Text Only | Print | Product List | Glossary On
Versions: 1 2 3 4 5 6 7 8 9 10 11 12 13 14 15 16 17 18 19 20 21 22 23 24 25 26 27 28 29 30 31 32 33 34 35 36 37 38 39 40 41 42 43 44 45 46 47 48 49 50
000
ASUS42 KRAH 032010
RWRRAH
NORTH CAROLINA WEATHER ROUNDUP
NATIONAL WEATHER SERVICE RALEIGH NC
300 PM EST TUE MAR 03 2015

NOTE: "FAIR" INDICATES FEW OR NO CLOUDS BELOW 12,000 FEET WITH NO
SIGNIFICANT WEATHER AND/OR OBSTRUCTIONS TO VISIBILITY.

NCZ001-053-055-056-065-067-032100-
WESTERN NORTH CAROLINA

CITY           SKY/WX    TMP DP  RH WIND       PRES   REMARKS
ASHEVILLE      CLOUDY    49  41  74 S10       30.14F
JEFFERSON      CLOUDY    42  31  64 SE6       30.10F
MORGANTON      CLOUDY    43  38  82 CALM      30.23F
HICKORY        CLOUDY    40  37  89 CALM      30.20F
RUTHERFORDTON  CLOUDY    49  36  59 SW5       30.19F
MOUNT AIRY     CLOUDY    39  36  90 CALM      30.21F FOG
BOONE          FAIR      50  42  73 SE6       30.10F
$$

NCZ021-022-025-041-071-084-088-032100-
CENTRAL NORTH CAROLINA

CITY           SKY/WX    TMP DP  RH WIND       PRES   REMARKS
CHARLOTTE      CLOUDY    41  36  82 N5        30.23F
GREENSBORO     DRIZZLE   36  33  89 CALM      30.22F
WINSTON-SALEM  CLOUDY    37  34  89 SE5       30.22F FOG     WCI  33
RALEIGH-DURHAM DRIZZLE   36  30  79 CALM      30.24F FOG
FORT BRAGG     LGT RAIN  37  36  93 NE3       30.22F FOG
FAYETTEVILLE   LGT RAIN  38  36  92 NE5       30.24F FOG     WCI  34
BURLINGTON     LGT RAIN  35  31  85 W3        30.24R FOG
LAURINBURG     CLOUDY    38  36  92 NE5       30.25F FOG     WCI  34
$$

NCZ011-015-027-028-043-044-047-080-103-032100-
NORTHEASTERN NORTH CAROLINA

CITY           SKY/WX    TMP DP  RH WIND       PRES   REMARKS
ROCKY MT-WILSO CLOUDY    41  29  62 SE5       30.24F
GREENVILLE     FAIR      41  34  75 E5        30.25F
WASHINGTON     PTSUNNY   43  36  76 E5        30.25F
ELIZABETH CITY CLOUDY    43  32  65 E5        30.26F
MANTEO         CLOUDY    43  36  75 NE6       30.26F
CAPE HATTERAS  CLOUDY    46  40  79 NE3       30.26F
$$

NCZ078-087-090-091-093-098-101-032100-
SOUTHEASTERN NORTH CAROLINA

CITY           SKY/WX    TMP DP  RH WIND       PRES   REMARKS
LUMBERTON      CLOUDY    43  35  73 NE8       30.24F
GOLDSBORO      CLOUDY    39  39 100 E5        30.22F FOG
KINSTON        CLOUDY    41  37  87 E3        30.25F FOG
KENANSVILLE    CLOUDY    40  39  97 CALM      30.25F FOG
NEW BERN       CLOUDY    48  34  58 E7        30.25F
CHERRY POINT   DRIZZLE   47  36  65 NE8       30.25F
BEAUFORT       CLOUDY    47  41  80 NE8       30.24F
JACKSONVILLE   CLOUDY    46  40  79 E7        30.23F
WILMINGTON     CLOUDY    47  39  74 E6        30.23F
$$



USA.gov is the U.S. government's official web portal to all federal, state and local government web resources and services.